VK6HGR-1 Weather Reports


Display with metric or nautical units.
time (UTC)temp
F
wind
direction
speed
MPH
gust
MPH
rain 1hr
in
rain 24hr
in
rain mn
in
humidity
%
barometer
mb
20260508230014 59 0.0 0.0 0.00 0.00 0.00 53 1025.0
20260508224510 60 0.0 0.0 0.00 0.00 0.00 53 1024.8
20260508223011 60 0.0 0.0 0.00 0.00 0.00 53 1024.8
20260508221511 60 0.0 0.0 0.00 0.00 0.00 53 1024.7
20260508220012 60 0.0 0.0 0.00 0.00 0.00 52 1024.7
20260508214513 60 0.0 0.0 0.00 0.00 0.00 52 1024.6
20260508213011 60 0.0 0.0 0.00 0.00 0.00 51 1024.3
20260508211510 61 0.0 0.0 0.00 0.00 0.00 51 1024.1
20260508210013 61 0.0 0.0 0.00 0.00 0.00 51 1023.9
20260508204512 61 0.0 0.0 0.00 0.00 0.00 51 1023.9
20260508203014 61 0.0 0.0 0.00 0.00 0.00 50 1023.9
20260508201510 61 0.0 0.0 0.00 0.00 0.00 50 1023.8
20260508200012 61 0.0 0.0 0.00 0.00 0.00 49 1023.6
20260508194511 62 0.0 0.0 0.00 0.00 0.00 49 1023.6
20260508193013 62 0.0 0.0 0.00 0.00 0.00 49 1023.6
20260508191510 62 0.0 0.0 0.00 0.00 0.00 48 1023.6
20260508190011 62 0.0 0.0 0.00 0.00 0.00 48 1023.5
20260508184512 62 0.0 0.0 0.00 0.00 0.00 48 1023.7
20260508183012 63 0.0 0.0 0.00 0.00 0.00 48 1023.6
20260508181511 63 0.0 0.0 0.00 0.00 0.00 47 1023.6
20260508180010 63 0.0 0.0 0.00 0.00 0.00 46 1023.6
20260508174511 63 0.0 0.0 0.00 0.00 0.00 46 1023.6
20260508173015 64 0.0 0.0 0.00 0.00 0.00 46 1023.5
20260508171513 64 0.0 0.0 0.00 0.00 0.00 45 1023.5
20260508170010 64 0.0 0.0 0.00 0.00 0.00 45 1023.6
20260508164513 64 0.0 0.0 0.00 0.00 0.00 45 1023.6
20260508163012 64 0.0 0.0 0.00 0.00 0.00 45 1023.7
20260508161510 65 0.0 0.0 0.00 0.00 0.00 44 1023.5
20260508160010 65 0.0 0.0 0.00 0.00 0.00 43 1023.5
20260508154514 65 0.0 0.0 0.00 0.00 0.00 42 1023.5
20260508153014 66 0.0 0.0 0.00 0.00 0.00 41 1023.4
20260508151511 66 0.0 0.0 0.00 0.00 0.00 41 1023.5
20260508150012 66 0.0 0.0 0.00 0.00 0.00 41 1023.4
20260508144511 66 0.0 0.0 0.00 0.00 0.00 41 1023.6
20260508143013 66 0.0 0.0 0.00 0.00 0.00 41 1023.7
20260508141511 66 0.0 0.0 0.00 0.00 0.00 42 1023.7
20260508140012 66 0.0 0.0 0.00 0.00 0.00 42 1023.8
20260508134512 66 0.0 0.0 0.00 0.00 0.00 43 1023.7
20260508133010 66 0.0 0.0 0.00 0.00 0.00 44 1023.8
20260508131519 66 0.0 0.0 0.00 0.00 0.00 44 1023.9
20260508130015 67 0.0 0.0 0.00 0.00 0.00 45 1023.6
20260508124511 67 0.0 0.0 0.00 0.00 0.00 45 1023.7
20260508123015 67 0.0 0.0 0.00 0.00 0.00 45 1023.6
20260508121510 67 0.0 0.0 0.00 0.00 0.00 45 1023.6
20260508120112 67 0.0 0.0 0.00 0.00 0.00 45 1023.5
20260508120011 67 0.0 0.0 0.00 0.00 0.00 45 1023.5
20260508114510 68 0.0 0.0 0.00 0.00 0.00 45 1023.5
20260508113016 68 0.0 0.0 0.00 0.00 0.00 45 1023.4
20260508111512 68 0.0 0.0 0.00 0.00 0.00 44 1023.4
20260508110010 69 0.0 0.0 0.00 0.00 0.00 44 1023.5
20260508104514 69 0.0 0.0 0.00 0.00 0.00 43 1023.5
20260508103012 70 0.0 0.0 0.00 0.00 0.00 43 1023.4
20260508101511 70 0.0 0.0 0.00 0.00 0.00 43 1023.3
20260508100010 71 0.0 0.0 0.00 0.00 0.00 42 1023.3
20260508094513 71 0.0 0.0 0.00 0.00 0.00 42 1023.1
20260508093011 72 0.0 0.0 0.00 0.00 0.00 41 1023.0
20260508091510 72 0.0 0.0 0.00 0.00 0.00 41 1022.9
20260508090010 73 0.0 0.0 0.00 0.00 0.00 40 1022.8
20260508084513 74 0.0 0.0 0.00 0.00 0.00 41 1022.7
20260508083010 74 0.0 0.0 0.00 0.00 0.00 40 1022.6
20260508081510 75 0.0 0.0 0.00 0.00 0.00 39 1022.7
20260508080010 75 0.0 0.0 0.00 0.00 0.00 38 1022.6
20260508074524 75 0.0 0.0 0.00 0.00 0.00 39 1022.6
20260508073014 76 0.0 0.0 0.00 0.00 0.00 38 1022.6
20260508071511 76 0.0 0.0 0.00 0.00 0.00 38 1022.6
20260508070011 76 0.0 0.0 0.00 0.00 0.00 36 1022.6
20260508064516 76 0.0 0.0 0.00 0.00 0.00 37 1022.7
20260508063011 76 0.0 0.0 0.00 0.00 0.00 36 1022.8
20260508061510 77 0.0 0.0 0.00 0.00 0.00 38 1022.8
20260508060011 76 0.0 0.0 0.00 0.00 0.00 38 1023.1
20260508054513 76 0.0 0.0 0.00 0.00 0.00 39 1023.2
20260508053018 75 0.0 0.0 0.00 0.00 0.00 39 1023.4
20260508051510 75 0.0 0.0 0.00 0.00 0.00 42 1023.6
20260508050011 75 0.0 0.0 0.00 0.00 0.00 42 1023.8
20260508044512 74 0.0 0.0 0.00 0.00 0.00 44 1024.0
20260508043012 73 0.0 0.0 0.00 0.00 0.00 46 1024.3
20260508041646 73 0.0 0.0 0.00 0.00 0.00 47 1024.7
20260508041511 73 0.0 0.0 0.00 0.00 0.00 47 1024.7
20260508040055 73 0.0 0.0 0.00 0.00 0.00 46 1025.1
20260508040011 73 0.0 0.0 0.00 0.00 0.00 46 1025.1
20260508034513 73 0.0 0.0 0.00 0.00 0.00 46 1025.5
20260508033010 73 0.0 0.0 0.00 0.00 0.00 48 1025.7
20260508031510 72 0.0 0.0 0.00 0.00 0.00 47 1026.0
20260508030011 71 0.0 0.0 0.00 0.00 0.00 48 1026.2
20260508024511 70 0.0 0.0 0.00 0.00 0.00 48 1026.3
20260508023359 70 0.0 0.0 0.00 0.00 0.00 49 1026.5
20260508023015 70 0.0 0.0 0.00 0.00 0.00 49 1026.5
20260508021511 69 0.0 0.0 0.00 0.00 0.00 51 1026.5
20260508020011 68 0.0 0.0 0.00 0.00 0.00 51 1026.6
20260508014511 67 0.0 0.0 0.00 0.00 0.00 52 1026.9
20260508013010 66 0.0 0.0 0.00 0.00 0.00 53 1027.1
20260508011513 65 0.0 0.0 0.00 0.00 0.00 55 1027.2
20260508010011 64 0.0 0.0 0.00 0.00 0.00 57 1027.4
20260508004511 63 0.0 0.0 0.00 0.00 0.00 58 1027.5
20260508003010 62 0.0 0.0 0.00 0.00 0.00 60 1027.5
20260508001510 61 0.0 0.0 0.00 0.00 0.00 61 1027.4
20260508000010 59 0.0 0.0 0.00 0.00 0.00 63 1027.4
20260507234512 58 0.0 0.0 0.00 0.00 0.00 65 1027.3
20260507233012 56 0.0 0.0 0.00 0.00 0.00 65 1027.2
20260507231512 56 0.0 0.0 0.00 0.00 0.00 65 1027.0